This demonstration page uses our WeatherBlox Daily Observations layout. Learn more.

Left ArrowRight Arrow

Hourly Observations for September 6, 2015

Temp ( °F °C ) Dew Point ( °F °C ) Humidity (%) Winds ( mph kmh ) Pressure ( in mb ) Visibility ( mi km ) Precip ( " mm )
12:51 am 00:51 Clear 66 18.9 63 17.2 90 90 Calm 29.92 1013 10 16.0934 0 0
1:51 am 01:51 Clear 67 19.4 64 17.8 91 91 Calm 29.91 1013 10 16.0934 0 0
2:51 am 02:51 Clear 68 20 63 17.2 84 84 Calm 29.91 1013 10 16.0934 0 0
3:51 am 03:51 Clear 66 18.9 63 17.2 90 90 ENE 6 9 29.92 1013 10 16.0934 0 0
4:51 am 04:51 Clear 65 18.3 62 16.7 90 90 Calm 29.93 1013 10 16.0934 0 0
5:51 am 05:51 Clear 64 17.8 62 16.7 93 93 NNE 6 9 29.95 1014 10 16.0934 0 0
6:51 am 06:51 Sunny 66 18.9 63 17.2 90 90 Calm 29.96 1015 10 16.0934 0 0
7:51 am 07:51 Sunny 71 21.7 62 16.7 73 73 Calm 29.97 1015 10 16.0934 0 0
8:51 am 08:51 Sunny 72 22.2 61 16.1 68 68 Calm 29.98 1015 10 16.0934 0 0
9:51 am 09:51 Sunny 79 26.1 60 15.6 52 52 Calm 29.97 1015 10 16.0934 0 0
10:51 am 10:51 Sunny 83 28.3 59 15 44 44 W 5 7 29.95 1014 10 16.0934 0 0
11:51 am 11:51 Sunny 87 30.6 56 13.3 35 35 VRB 5 7 29.92 1013 10 16.0934 0 0
12:51 pm 12:51 Sunny 89 31.7 55 12.8 31 31 SSW 6 9 29.89 1012 10 16.0934 0 0
1:51 pm 13:51 Sunny 90 32.2 55 12.8 31 31 SSW 5 7 29.87 1012 10 16.0934 0 0
2:51 pm 14:51 Sunny 92 33.3 55 12.8 29 29 VRB 3 6 29.84 1011 10 16.0934 0 0
3:51 pm 15:51 Sunny 92 33.3 55 12.8 29 29 SW 6 9 29.82 1010 10 16.0934 0 0
4:51 pm 16:51 Sunny 93 33.9 55 12.8 28 28 WNW 3 6 29.8 1009 10 16.0934 0 0
5:51 pm 17:51 Sunny 92 33.3 56 13.3 30 30 NW 6 9 29.79 1009 10 16.0934 0 0
6:51 pm 18:51 Clear 87 30.6 58 14.4 37 37 WNW 7 11 29.8 1009 10 16.0934 0 0
7:51 pm 19:51 Clear 84 28.9 59 15 43 43 NW 3 6 29.82 1010 10 16.0934 0 0
8:51 pm 20:51 Clear 81 27.2 60 15.6 49 49 NNW 6 9 29.85 1011 10 16.0934 0 0
9:51 pm 21:51 Clear 81 27.2 59 15 47 47 NNW 7 11 29.83 1010 10 16.0934 0 0
10:51 pm 22:51 Clear 78 25.6 61 16.1 56 56 E 7 11 29.84 1010 10 16.0934 0 0
11:51 pm 23:51 Clear 77 25 61 16.1 58 58 ESE 5 7 29.85 1011 10 16.0934 0 0

Powered by AerisWeather